[ ตารางข้อมูล ] [ Min-Max ] [ วันนี้4 ] [ วันนี้2 ] [ เทียบ3วัน A ] [ เทียบ4วัน B ]   

วันนี้2   [ ◀ ช่วงเก่ากว่า ] [ ช่วงที่ 175 ] [ ช่วงใหม่กว่า ▶ ] [ ล่าสุด ]    [ 3 ชั่วโมง ] [ 6 ชั่วโมง ] [ 12 ชั่วโมง ] [ 24 ชั่วโมง ]   วันนี้2

อุณภูมิตู้ Knockdown4529  ราย 6 ชั่วโมง  ที่วัดได้ ในช่วงวันเวลา 20/03/2026 (08:40) ถึง 20/03/2026 (14:40) 
ความชื้นในตู้ Knockdown4529  ราย 6 ชั่วโมง  ที่วัดได้ ในช่วงวันเวลา 20/03/2026 (08:40) ถึง 20/03/2026 (14:40) 

 
DS18B20SHTC3 
IDDate d/m/Y & Timedata1
สูง
data2
ต่ำ
data3
นอก
temp
pcb
hum
pcb
Time
 4254  20/03/2026 14:35:53  31.9  30.9  31.1  31.1  69.5  14:35 
 4253  20/03/2026 14:31:12  31.9  30.9  31.5  31.2  69.5  14:31 
 4252  20/03/2026 14:26:30  31.9  30.9  31.2  31.4  69.3  14:26 
 4251  20/03/2026 14:21:48  31.9  30.9  31.0  31.5  69.6  14:21 
 4250  20/03/2026 14:17:07  31.9  30.8  31.9  31.1  69.5  14:17 
 4249  20/03/2026 14:12:25  31.9  30.8  32.2  31.2  69.4  14:12 
 4248  20/03/2026 14:07:43  31.9  30.8  32.0  31.1  69.2  14:07 
 4247  20/03/2026 14:03:00  31.9  30.8  31.9  31.2  69.2  14:03 
 4246  20/03/2026 13:58:19  31.9  30.8  32.0  31.2  69.3  13:58 
 4245  20/03/2026 13:53:36  31.9  30.8  31.7  31.4  69.3  13:53 
 4244  20/03/2026 13:48:55  31.9  30.7  31.7  31.2  69.2  13:48 
 4243  20/03/2026 13:44:13  31.9  30.7  31.7  31.4  69.2  13:44 
 4242  20/03/2026 13:39:31  31.9  30.7  31.8  31.3  69.0  13:39 
 4241  20/03/2026 13:34:49  31.8  30.6  32.0  31.1  69.1  13:34 
 4240  20/03/2026 13:30:08  31.8  30.6  31.8  31.2  68.9  13:30 
 4239  20/03/2026 13:25:23  31.8  30.6  31.9  31.1  68.7  13:25 
 4238  20/03/2026 13:20:40  31.8  30.6  32.0  31.2  68.7  13:20 
 4237  20/03/2026 13:15:58  31.8  30.6  31.7  31.0  68.4  13:15 
 4236  20/03/2026 13:11:17  31.8  30.5  31.6  31.1  68.2  13:11 
 4235  20/03/2026 13:06:35  31.8  30.5  31.8  31.1  68.1  13:06 
 4234  20/03/2026 13:01:53  31.8  30.5  31.7  31.2  68.2  13:01 
 4233  20/03/2026 12:57:11  31.8  30.4  31.6  31.1  68.2  12:57 
 4232  20/03/2026 12:52:29  31.7  30.4  31.8  31.2  68.1  12:52 
 4231  20/03/2026 12:47:48  31.6  30.4  31.8  31.0  68.1  12:47 

Data every 5 minute.


ใช้เวลาประมวลผล 0.00412 วินาที